Location: Lamazère
(43.5560°N, 0.4514°E)
Time: 01:14:11
(UTC+00:00)

Daily predictions for brighter satellites

Satellite Brightness Start Highest point End
(mag) Time Altitude Azimuth Time Altitude Azimuth Time Altitude Azimuth
Cosmos 2297 Rocket 4.0 00:05:32 10° N 00:10:14 26° NE 00:14:54 10° ESE
Cosmos 1782 3.8 00:08:43 10° N 00:11:51 35° ENE 00:11:51 35° ENE
SL-08 ROCKET BODY 4.3 00:11:57 54° S 00:13:26 90° W 00:19:27 10° N
NOSS 3-4 (A) 4.1 00:06:39 10° NW 00:13:29 53° WSW 00:15:34 43° SSW
NOSS 3-4 (C) 4.1 00:06:44 10° NW 00:13:34 54° WSW 00:15:40 43° SSW
Cosmos 1975 Rocket 4.4 00:14:30 28° W 00:15:04 29° WNW 00:18:52 10° NNW
BREEZE-M DEB (TANK) 4.3 00:11:38 10° W 00:15:35 57° N 00:30:04 10° ENE
Cosmos 2058 3.2 00:18:00 54° ENE 00:18:00 54° ENE 00:21:30 10° NNE
Cosmos 1818 3.5 00:13:23 10° NW 00:18:46 61° WSW 00:19:10 59° SW
Cosmos 44 3.0 00:19:22 69° WNW 00:19:33 70° NW 00:23:56 10° NNE
Cosmos 2228 4.0 00:22:24 10° NNW 00:25:54 34° W 00:25:54 34° W
Cosmos 1680 Rocket 3.8 00:26:24 10° NNW 00:31:37 61° ENE 00:33:13 42° SE
RESURS DK-1 4.3 00:29:45 10° N 00:33:05 25° NE 00:34:58 18° E
Cosmos 1697 Rocket 4.3 00:32:50 20° ESE 00:34:00 22° E 00:38:11 10° NE
H-2A R/B 3.4 00:34:14 33° E 00:34:35 34° ENE 00:38:01 10° N
Cosmos 1656 3.8 00:33:45 53° SSE 00:34:43 61° ESE 00:40:14 10° NNE
Cosmos 923 Rocket 3.8 00:33:51 10° NNW 00:39:04 86° WSW 00:39:56 63° S
Cosmos 2227 Rocket 4.4 00:37:13 10° N 00:41:37 22° NE 00:45:59 10° E
Cosmos 1400 Rocket 3.4 00:40:22 10° NNW 00:43:29 44° WNW 00:43:29 44° WNW
EO 1 Delta rocket 4.2 00:46:45 46° WSW 00:47:00 46° W 00:51:28 10° NNW
Cosmos 1937 Rocket 3.8 00:47:15 46° WSW 00:48:23 56° WNW 00:53:27 10° NNE
ISS -1.0 00:50:32 10° NW 00:53:09 20° N 00:55:46 10° ENE
H-2A R/B 4.4 00:55:00 10° ENE 00:56:54 13° E 00:58:11 11° ESE
Cosmos 1441 Rocket 4.2 00:58:03 33° E 00:58:03 33° E 01:01:00 10° NNE
Cosmos 2315 Rocket 4.0 00:52:35 10° N 00:59:00 85° W 01:01:14 44° S
Cosmos 1933 3.2 01:03:02 10° N 01:06:55 73° E 01:07:01 72° E
DELTA 2 R/B (1) 4.0 01:07:25 41° SSE 01:07:25 41° SSE 01:12:12 10° E
Meteor 2-3 Rocket 3.9 01:10:11 42° SSE 01:12:08 70° E 01:17:55 10° NNE
DNEPR-1 R/B 3.6 01:08:20 10° NW 01:12:14 57° WSW 01:12:14 57° WSW
CZ-2C R/B 2.6 01:11:03 49° S 01:12:30 72° WSW 01:18:03 10° NNW
Orbus 7S? 4.5 01:17:40 39° SSE 01:18:34 43° ESE 01:26:17 10° NE
Cosmos 1655 Rocket 4.2 01:20:19 40° SW 01:22:40 65° W 01:29:02 10° N
Cosmos 1606 Rocket 4.2 01:19:04 10° NNW 01:23:07 40° W 01:23:12 40° W
Cosmos 2058 Rocket 3.1 01:19:54 10° N 01:24:20 73° E 01:25:27 49° SSE
Cosmos 1315 Rocket 3.0 01:20:45 10° N 01:24:31 61° ENE 01:25:07 52° ESE
IDEFIX/ARIANE 42P 2.8 01:25:14 10° NNE 01:30:22 61° ESE 01:32:15 37° SSE
CZ-2C R/B 3.6 01:33:15 10° N 01:37:48 41° WNW 01:39:09 33° WSW
Cosmos 2360 4.4 01:36:32 36° SW 01:38:45 63° WNW 01:44:26 10° NNE
CZ-4C R/B 4.1 01:37:16 10° W 01:40:53 21° NNW 01:45:12 10° NNE
Meteor 1-26 Rocket 4.2 01:36:13 10° N 01:41:38 73° E 01:44:35 27° SSE
ADEOS II 3.9 01:42:13 10° NE 01:46:23 24° E 01:50:13 11° SE
Cosmos 2263 Rocket 3.8 01:42:32 10° N 01:47:41 34° NE 01:52:46 10° ESE
Cosmos 494 Rocket 4.2 01:42:49 10° NNW 01:47:52 50° WSW 01:49:10 40° SSW
Cosmos 2297 Rocket 2.3 01:49:05 10° NNW 01:54:35 53° WSW 01:56:44 34° SSW
CZ-2D R/B 3.0 01:52:56 10° NNE 01:57:53 41° E 02:01:07 20° SSE
MOZ.5/SAFIR/RUBIN 5/SL-8 3.7 01:56:34 30° SSE 01:58:52 88° ENE 02:03:32 10° NNW
BREEZE-M DEB (TANK) 2.7 01:59:50 10° NW 02:02:18 42° NNE 02:04:29 10° E
Cosmos 1758 Rocket 3.5 02:05:25 38° S 02:07:03 89° W 02:11:28 10° N
Cosmos 1602 Rocket 3.8 02:05:12 30° SSE 02:07:09 62° E 02:11:25 10° NNE
Cosmos 1980 Rocket 2.5 02:05:14 27° S 02:08:12 57° ESE 02:13:41 10° NNE
H-2A R/B 4.1 02:09:35 16° W 02:09:35 16° W 02:11:29 10° NW
Tiangong -1.2 02:10:34 35° SE 02:10:34 35° SE 02:13:12 10° E
RESURS DK-1 3.2 02:07:03 10° NW 02:10:15 29° W 02:10:15 29° W
Resurs 1-4 Rocket 2.4 02:06:58 10° NNE 02:12:14 61° ESE 02:15:34 22° S
Cosmos 1626 Rocket 3.7 02:12:06 37° SW 02:13:35 59° W 02:17:54 10° N
SeaSat 1 2.5 02:11:34 27° S 02:14:08 57° WSW 02:18:58 10° NW
Nadezhda 1 Rocket 4.0 02:08:00 10° N 02:14:18 89° E 02:19:10 17° S
Meteor 2-2 Rocket 4.4 02:09:05 10° NNW 02:14:32 52° W 02:17:16 28° SSW
Cosmos 468 4.4 02:10:15 10° NNW 02:15:35 80° WSW 02:19:48 16° SSE
Cosmos 1745 Rocket 4.0 02:12:26 24° S 02:16:32 87° E 02:22:56 10° N
Cosmos 1697 Rocket 3.0 02:14:32 28° SW 02:17:28 57° WNW 02:23:04 10° NNE
H-2A R/B 4.4 02:18:09 10° NE 02:21:09 16° E 02:24:07 10° SE
BlueWalker 3 3.6 02:20:13 10° NW 02:23:35 33° NNE 02:26:55 10° E
Cosmos 614 Rocket 4.1 02:19:00 10° NNW 02:24:04 73° ENE 02:29:05 10° SSE
FENGYUN 3A 3.7 02:19:23 10° N 02:24:47 75° WNW 02:27:59 25° SSW
Cosmos 2227 Rocket 2.2 02:20:31 10° NNW 02:26:09 66° WSW 02:31:20 12° S
MSX 4.3 02:22:35 10° N 02:28:05 49° WNW 02:31:23 23° SW
Cosmos-2242 3.9 02:24:46 10° NNW 02:28:26 29° W 02:29:26 26° WSW
ISS -2.5 02:27:13 10° NW 02:30:28 44° NNE 02:33:41 10° E
Cosmos 1709 Rocket 4.1 02:25:56 18° S 02:30:52 82° E 02:37:14 10° N
Okean 1 3.0 02:28:47 10° NNW 02:32:30 73° W 02:34:28 26° S
H-2A R/B 2.2 02:28:32 10° N 02:32:38 58° WNW 02:34:42 28° SW
Cosmos 1932 4.5 02:31:45 23° SW 02:35:46 79° NW 02:42:11 10° NNE
Okean 1-7 Rocket 3.5 02:35:08 24° SSW 02:37:44 80° W 02:42:14 10° N
ATLAS 2AS CENTAUR R/B 3.4 02:31:48 10° NNW 02:38:29 57° NE 02:45:03 10° SE
SL-23 DEB 4.2 02:37:57 28° S 02:38:59 37° SE 02:42:11 10° ENE
USA 290 3.5 02:36:26 10° N 02:39:35 42° ENE 02:42:43 10° SE
NPP 4.5 02:39:25 10° N 02:44:21 37° WNW 02:47:39 19° WSW
ALOS 2.3 02:40:57 10° NNE 02:45:32 78° ESE 02:49:02 17° S
Cosmos 1743 3.4 02:45:31 13° SSE 02:48:13 43° E 02:51:26 10° NNE
Cosmos 2221 2.5 02:45:00 10° NNW 02:49:14 65° W 02:52:32 16° S
Cosmos 1125 Rocket 4.2 02:46:24 20° WSW 02:49:41 41° WNW 02:54:40 10° N
Cosmos 192 4.4 02:46:47 22° SSW 02:50:00 70° WNW 02:54:56 10° NNE
Cosmos 2298 Rocket 4.0 02:48:25 18° SSW 02:52:24 87° ESE 02:57:44 10° NNE
DELTA 2 R/B (1) 3.7 02:48:05 13° WSW 02:52:58 59° S 02:58:27 10° ESE
Cosmos 2151 3.0 02:51:45 21° SSW 02:54:23 59° W 02:58:30 10° N
Cosmos 1953 Rocket 3.9 02:56:52 10° S 03:01:08 67° E 03:05:27 10° NNE
Cosmos 2322 Rocket 4.4 02:58:35 10° SE 03:02:37 20° E 03:06:38 10° NE
Cosmos 2369 3.7 03:01:07 16° SSW 03:05:43 82° WNW 03:11:24 10° NNE
Cosmos 2333 Rocket 4.2 03:03:12 10° SSE 03:07:39 24° ESE 03:12:04 10° NE
Meteor 1-19 Rocket 4.1 03:02:35 10° NNW 03:08:02 82° W 03:13:36 10° S
IDEFIX/ARIANE 42P 4.3 03:05:46 10° NNW 03:09:21 19° WNW 03:12:55 10° WSW
Cosmos 1812 Rocket 4.5 03:06:12 10° NNW 03:10:03 30° W 03:12:55 15° SW
Lacrosse 5 rocket 3.5 03:09:32 10° NNW 03:12:59 28° NNE 03:16:24 10° E
Meteor 1-20 Rocket 4.3 03:08:15 11° SSW 03:13:51 75° W 03:19:40 10° N
Meteor 1-28 Rocket 3.8 03:11:09 10° SSE 03:14:25 50° ENE 03:17:41 10° N
Cosmos 2082 3.7 03:10:27 10° NNW 03:16:10 80° WSW 03:21:47 10° SSE
USA 234 3.6 03:11:30 10° NE 03:17:56 59° SE 03:24:13 11° SSW
Cosmos 1707 3.8 03:18:21 10° N 03:21:28 38° ENE 03:24:33 10° SSE
Cosmos 921 Rocket 3.1 03:20:13 10° NNW 03:24:34 56° WSW 03:28:49 10° S
Cosmos 2219 3.4 03:19:09 10° NW 03:24:40 52° WSW 03:30:06 10° S
CZ-3 R/B 4.2 02:48:54 10° WSW 03:25:11 47° S 03:35:24 10° ESE
Cosmos 1733 2.8 03:22:50 10° S 03:25:48 70° E 03:28:48 10° NNE
Cosmos 1825 Rocket 4.2 03:22:38 13° SW 03:26:07 37° WNW 03:30:10 10° N
ADEOS II 2.6 03:21:10 10° N 03:26:08 46° WNW 03:31:02 10° SW
SL-16 R/B 2.8 03:21:36 10° S 03:27:06 55° ESE 03:32:37 10° NNE
Envisat 3.3 03:23:21 10° N 03:28:15 51° WNW 03:33:09 10° SW
SL-16 R/B 2.6 03:22:41 10° SSE 03:28:57 80° WSW 03:35:15 10° NNW
Cosmos 1238 Rocket 4.3 03:24:46 10° NNW 03:29:30 34° W 03:34:05 10° SSW
Cosmos 2263 Rocket 2.7 03:26:26 10° NW 03:31:36 38° WSW 03:36:41 10° S
METEOR-M 4.2 03:31:04 10° N 03:36:25 75° WNW 03:41:43 10° SSW
CZ-2D R/B 3.3 03:33:19 10° N 03:37:39 27° WNW 03:41:58 10° WSW
KORONAS-FOTON 3.6 03:34:40 10° N 03:38:13 88° E 03:41:44 10° S
Gbstr 26 Del rocket 4.4 03:31:39 10° WNW 03:38:19 58° SW 03:45:53 10° SE
Cosmos 1076 Rocket 3.8 03:34:36 10° SSW 03:38:46 49° WNW 03:42:56 10° N
DMSP B5D2-2 4.4 03:35:23 10° S 03:40:24 46° W 03:45:27 10° NNW
H-2A R/B 3.3 03:41:35 10° NNE 03:45:30 87° ESE 03:49:22 10° SSW
OAO 2 Rocket 4.3 03:41:40 10° SW 03:46:00 30° S 03:50:24 10° ESE
ARGOS Delta rocket 4.3 03:41:11 10° NNE 03:46:34 74° E 03:51:41 10° S
Tiangong -1.9 03:43:44 10° W 03:46:59 60° S 03:50:14 10° E
Meteor 1-27 Rocket 4.0 03:41:40 10° NNW 03:47:28 57° W 03:53:13 10° S
Cosmos 2074 Rocket 4.0 03:44:10 10° SSW 03:50:20 75° W 03:56:34 10° N
Cosmos 2237 4.4 03:45:17 10° SW 03:50:55 66° WNW 03:56:36 10° NNE
Resurs 1-4 Rocket 3.7 03:47:47 10° NNW 03:51:31 20° WNW 03:55:14 10° WSW
Cosmos 44 Rocket 4.2 03:48:08 10° S 03:52:32 43° ESE 03:56:58 10° NE
Cosmos 1980 Rocket 3.6 03:48:03 10° WSW 03:52:33 24° NW 03:57:05 10° N
